Starlink 11230

operational
NORAD ID: 61053 Int'l Des: 2024-164 Owner: SPXS Country: US Constellation: starlink
LEOCIRCULAR

Starlink 11230について

説明を読み込み中...

リアルタイム位置

3D地球を読み込み中...

次回通過

高度履歴

Altitude vs Time

uPlot chart will show altitude changes over time

軌道要素

1 61053U 24164D 25351.31864892 -.00002980 00000-0 -19756-4 0 9992
2 61053 53.1586 357.1805 0001118 82.5435 277.5710 15.69695904 72486
Epoch: Dec 17, 2025 • Age: 23 hours

現在のステータス

高度 365.0 km
速度 7.70 km/s
衛星直下点 50.62°N, 85.2°W
打ち上げ日 Sep 13, 2024
運用期間 1.2 years
タイプ internet

技術仕様

分類 Payload
質量 960.00 kg
乾燥質量 910.00 kg
総質量 960.00 kg
長さ 0.30 m
直径 4.10 m
スパン 29.00 m
形状 Box + pan
製造者 SPXS
バスタイプ Starlink V2MD
フェーズステータス In Orbit
所有者/国 SPXS/US

大規模コンステレーション

Loading constellations...